Angel Fire, NM

3:35 AM MST on January 16, 2018 (GMT -0700)
Angel Fire

Weather History for KAXX - November, 2012

Change the Weather History Date:

Tuesday, November 13, 2012

  Actual Average (KSKX) Record (KSKX)
Temperature  
Mean Temperature 24 °F -  
Max Temperature 44 °F 48 °F 69 °F (1999)
Min Temperature 4 °F 20 °F 5 °F (2000)
Degree Days  
Heating Degree Days 41    
Moisture  
Dew Point 4 °F    
Average Humidity 55    
Maximum Humidity 81    
Minimum Humidity 14    
Precipitation  
Precipitation 0.00 in - - ()
Sea Level Pressure  
Sea Level Pressure 30.32 in    
Wind  
Wind Speed 3 mph (WSW)    
Max Wind Speed 18 mph    
Max Gust Speed 23 mph    
Visibility 10 miles    
Events      
Averages and records for this station are not official NWS values.
T = Trace of Precipitation, MM = Missing Value Source: NWS Daily Summary

Daily Weather History Graph

Daily Weather History Graph

Search for Another Location

Airport or City:

Trip Planner

Search our weather history database for the weather conditions in past years. The results will help you decide how hot, cold, wet, or windy it might be!

Date:

Astronomy

Nov. 13, 2012 Rise Set
Actual Time 6:36 AM MST 4:53 PM MST
Civil Twilight 6:09 AM MST 5:20 PM MST
Nautical Twilight 5:38 AM MST 5:52 PM MST
Astronomical Twilight 5:08 AM MST 6:22 PM MST
Moon 6:17 AM MST (11/13) 4:49 PM MST (11/13)
Length of Visible Light 11h 11m
Length of Day
10h 16m
Waning Crescent, 0% of the Moon is Illuminated
Nov 13
Waning Crescent
Nov 13
New
Nov 20
First Quarter
Nov 28
Full
Dec 6
Last Quarter

Hourly Weather History & Observations

Time (MST) Temp. Windchill Dew Point Humidity Pressure Visibility Wind Dir Wind Speed Gust Speed Precip Events Conditions
12:15 AM 9.9 °F - 4.5 °F 79% 30.36 in 10.0 mi Calm Calm - N/A   Clear
12:35 AM 10.0 °F - 4.3 °F 78% 30.35 in 10.0 mi Calm Calm - N/A   Clear
12:55 AM 9.5 °F - 3.9 °F 78% 30.34 in 10.0 mi Calm Calm - N/A   Clear
1:15 AM 8.1 °F - 1.9 °F 76% 30.34 in 10.0 mi Calm Calm - N/A   Clear
1:35 AM 8.6 °F - 2.7 °F 77% 30.33 in 10.0 mi Calm Calm - N/A   Clear
1:55 AM 8.6 °F - 3.7 °F 81% 30.33 in 10.0 mi Calm Calm - N/A   Clear
2:15 AM 8.4 °F - 1.9 °F 75% 30.32 in 10.0 mi Calm Calm - N/A   Clear
2:35 AM 9.9 °F 1.6 °F 4.3 °F 78% 30.32 in 10.0 mi SE 4.6 mph - N/A   Clear
2:55 AM 7.7 °F - 1.6 °F 76% 30.32 in 10.0 mi Calm Calm - N/A   Clear
3:15 AM 8.6 °F - 3.2 °F 79% 30.31 in 10.0 mi Calm Calm - N/A   Clear
3:35 AM 5.9 °F - 0.5 °F 78% 30.31 in 10.0 mi Calm Calm - N/A   Clear
3:55 AM 8.6 °F - 3.0 °F 78% 30.30 in 10.0 mi Calm Calm - N/A   Clear
4:15 AM 4.5 °F - -1.3 °F 77% 30.30 in 10.0 mi Calm Calm - N/A   Clear
4:35 AM 5.9 °F - 0.3 °F 78% 30.30 in 10.0 mi Calm Calm - N/A   Clear
4:55 AM 7.3 °F - 1.6 °F 77% 30.30 in 10.0 mi Calm Calm - N/A   Clear
5:15 AM 5.2 °F - -0.9 °F 76% 30.31 in 10.0 mi Calm Calm - N/A   Clear
5:35 AM 5.2 °F - -0.4 °F 78% 30.30 in 10.0 mi Calm Calm - N/A   Clear
5:55 AM 5.4 °F - -0.4 °F 77% 30.30 in 10.0 mi Calm Calm - N/A   Clear
6:15 AM 5.9 °F - -0.0 °F 77% 30.31 in 10.0 mi Calm Calm - N/A   Clear
6:35 AM 4.8 °F - -0.9 °F 77% 30.31 in 10.0 mi Calm Calm - N/A   Clear
6:55 AM 5.5 °F - 0.3 °F 79% 30.31 in 10.0 mi Calm Calm - N/A   Clear
7:15 AM 8.2 °F - 2.1 °F 76% 30.31 in 10.0 mi Calm Calm - N/A   Clear
7:35 AM 6.6 °F - 0.7 °F 77% 30.32 in 10.0 mi Calm Calm - N/A   Clear
7:55 AM 9.3 °F - 3.6 °F 77% 30.32 in 10.0 mi Calm Calm - N/A   Clear
8:15 AM 12.7 °F - 6.6 °F 77% 30.32 in 10.0 mi Calm Calm - N/A   Clear
8:35 AM 17.8 °F 10.9 °F 9.9 °F 71% 30.33 in 10.0 mi NNE 4.6 mph - N/A   Clear
9:15 AM 21.7 °F - 11.7 °F 65% 30.32 in 10.0 mi Calm Calm - N/A   Clear
9:35 AM 29.8 °F 26.3 °F 14.4 °F 53% 30.31 in 10.0 mi WSW 3.5 mph - N/A   Clear
9:55 AM 37.4 °F 33.8 °F -0.0 °F 21% 30.30 in 10.0 mi NNW 4.6 mph 18.4 mph N/A   Clear
10:15 AM 39.4 °F 30.7 °F -1.5 °F 18% 30.29 in 10.0 mi WSW 16.1 mph - N/A   Clear
10:35 AM 40.5 °F 31.5 °F -5.8 °F 14% 30.28 in 10.0 mi West 18.4 mph 21.9 mph N/A   Clear
10:55 AM 41.0 °F 33.1 °F -4.0 °F 15% 30.28 in 10.0 mi West 15.0 mph - N/A   Clear
11:15 AM 41.2 °F 33.0 °F -1.1 °F 17% 30.27 in 10.0 mi WSW 16.1 mph - N/A   Clear
11:55 AM 41.7 °F 33.1 °F -1.8 °F 16% 30.26 in 10.0 mi WSW 18.4 mph - N/A   Clear
12:15 PM 42.1 °F 34.2 °F 1.2 °F 18% 30.25 in 10.0 mi WSW 16.1 mph 23.0 mph N/A   Clear
12:35 PM 42.8 °F 35.4 °F 0.7 °F 17% 30.25 in 10.0 mi WSW 15.0 mph 20.7 mph N/A   Clear
12:55 PM 43.3 °F 36.5 °F 0.5 °F 17% 30.25 in 10.0 mi West 13.8 mph - N/A   Clear
1:15 PM 43.9 °F 36.2 °F 1.2 °F 17% 30.25 in 10.0 mi West 17.3 mph - N/A   Clear
1:35 PM 43.9 °F 37.2 °F 1.8 °F 17% 30.24 in 10.0 mi West 13.8 mph 20.7 mph N/A   Clear
1:55 PM 44.4 °F 37.5 °F 2.1 °F 17% 30.24 in 10.0 mi WSW 15.0 mph - N/A   Clear
2:15 PM 44.1 °F 37.4 °F 1.2 °F 17% 30.25 in 10.0 mi West 13.8 mph - N/A   Clear
2:35 PM 43.9 °F 37.5 °F 1.6 °F 17% 30.25 in 10.0 mi West 12.7 mph - N/A   Clear
2:55 PM 43.7 °F 36.6 °F 1.9 °F 18% 30.25 in 10.0 mi West 15.0 mph - N/A   Clear
3:15 PM 43.3 °F 36.5 °F 2.1 °F 18% 30.26 in 10.0 mi West 13.8 mph 17.3 mph N/A   Clear
3:35 PM 42.8 °F 35.4 °F 1.4 °F 18% 30.27 in 10.0 mi WSW 15.0 mph 18.4 mph N/A   Clear
3:55 PM 41.9 °F 35.0 °F 2.1 °F 19% 30.27 in 10.0 mi West 12.7 mph - N/A   Clear
4:15 PM 41.4 °F - 1.8 °F 19% 30.27 in 10.0 mi Calm Calm - N/A   Clear
4:35 PM 40.5 °F - -0.0 °F 18% 30.29 in 10.0 mi Calm Calm - N/A   Clear
4:55 PM 39.0 °F - 0.5 °F 20% 30.30 in 10.0 mi Calm Calm - N/A   Clear
5:15 PM 38.7 °F - -1.1 °F 19% 30.31 in 10.0 mi Calm Calm - N/A   Clear
5:35 PM 35.8 °F - 3.7 °F 26% 30.31 in 10.0 mi Calm Calm - N/A   Clear
5:55 PM 31.8 °F - 9.1 °F 39% 30.33 in 10.0 mi Calm Calm - N/A   Clear
6:15 PM 30.0 °F 26.5 °F 12.4 °F 48% 30.34 in 10.0 mi ESE 3.5 mph - N/A   Clear
6:35 PM 28.4 °F - 11.3 °F 49% 30.34 in 10.0 mi Calm Calm - N/A   Clear
6:55 PM 26.2 °F 22.1 °F 11.5 °F 54% 30.34 in 10.0 mi South 3.5 mph - N/A   Clear
7:15 PM 24.6 °F - 12.4 °F 60% 30.35 in 10.0 mi Calm Calm - N/A   Clear
7:35 PM 22.6 °F - 13.6 °F 68% 30.36 in 10.0 mi Calm Calm - N/A   Clear
7:55 PM 22.8 °F - 12.9 °F 66% 30.36 in 10.0 mi Calm Calm - N/A   Clear
8:15 PM 19.9 °F - 12.6 °F 73% 30.37 in 10.0 mi Calm Calm - N/A   Clear
8:35 PM 19.6 °F - 12.7 °F 75% 30.38 in 10.0 mi Calm Calm - N/A   Clear
8:55 PM 17.8 °F - 11.1 °F 75% 30.39 in 10.0 mi Calm Calm - N/A   Clear
9:15 PM 19.4 °F 14.3 °F 13.1 °F 76% 30.39 in 10.0 mi SE 3.5 mph - N/A   Clear
9:35 PM 17.8 °F - 10.9 °F 75% 30.38 in 10.0 mi Calm Calm - N/A   Clear
9:55 PM 17.4 °F - 11.3 °F 77% 30.38 in 10.0 mi Calm Calm - N/A   Clear
10:15 PM 19.0 °F - 12.4 °F 75% 30.38 in 10.0 mi Calm Calm - N/A   Clear
10:35 PM 18.1 °F 12.9 °F 11.7 °F 76% 30.38 in 10.0 mi SSE 3.5 mph - N/A   Clear
10:55 PM 17.2 °F - 9.9 °F 73% 30.38 in 10.0 mi Calm Calm - N/A   Clear
11:15 PM 14.5 °F - 9.1 °F 79% 30.39 in 10.0 mi Calm Calm - N/A   Clear
11:35 PM 16.7 °F - 10.0 °F 75% 30.39 in 10.0 mi Calm Calm - N/A   Clear
11:55 PM 15.4 °F - 9.5 °F 77% 30.39 in 10.0 mi Calm Calm - N/A   Clear